Regional Weather Roundup
Issued by NWS

Home | Current Version | Previous Version | Text Only | Print | Product List | Glossary Off
Versions: 1 2 3 4 5 6 7 8 9 10 11 12 13 14 15 16 17 18 19 20 21 22 23 24 25 26 27 28 29 30 31 32 33 34 35 36 37 38 39 40 41 42 43 44 45 46 47 48 49 50

000
ASUS43 KOAX 081402
RWRNE

WEATHER ROUNDUP FOR NEBRASKA
NATIONAL WEATHER SERVICE OMAHA NE
800 AM CST THU DEC 08 2016

NOTES: SATELLITE DATA IS BEING USED TO AUGMENT CLOUD COVER ABOVE
       12000 FEET.
       "FAIR" INDICATES FEW OR NO CLOUDS BELOW 12,000 FEET WITH NO
       SIGNIFICANT WEATHER AND/OR OBSTRUCTIONS TO VISIBILITY.

  * THESE STATIONS DO NOT REPORT WEATHER SUCH AS RAIN...SNOW OR FOG.

NEZ001>004-019>022-054>056-081500-
NEBRASKA PANHANDLE

CITY           SKY/WX    TMP DP  RH WIND       PRES   REMARKS
SCOTTSBLUFF    CLOUDY    -9 -14  78 NW9       30.53R WCI -26
ALLIANCE       CLOUDY   -12 -17  78 W7        30.50S WCI -27
CHADRON        CLOUDY    -2  -9  72 SW6       30.58R WCI -14
SIDNEY         CLOUDY   -12 -17  78 NW9       30.49R WCI -30
$$

NEZ057>060-069>072-079>082-081500-
SOUTHWEST NEBRASKA

CITY           SKY/WX    TMP DP  RH WIND       PRES   REMARKS
NORTH PLATTE   CLEAR      0  -6  76 NW9       30.60R WCI -15
IMPERIAL       CLOUDY    -3 -10  72 NW10      30.57R WCI -20
MCCOOK         CLOUDY    -5 -10  79 SW9       30.63R WCI -22
$$

NEZ005>010-023>029-035>040-094-081500-
NORTH CENTRAL NEBRASKA

CITY           SKY/WX    TMP DP  RH WIND       PRES   REMARKS
VALENTINE      CLEAR      2  -5  72 NW10      30.60R WCI -14
BROKEN BOW     CLEAR      6  -2  69 NW18      30.56R WCI -13
ORD            CLEAR      7  -3  64 NW15G25   30.58R WCI -10
$$

NEZ041-046>049-061>064-073>077-083>087-081500-
SOUTH CENTRAL NEBRASKA

CITY           SKY/WX    TMP DP  RH WIND       PRES   REMARKS
GRAND ISLAND   CLEAR      7   0  73 NW13      30.60R WCI  -9
HASTINGS       CLEAR      8  -1  66 NW12      30.61R WCI  -7
KEARNEY *      CLEAR      7  -4  61 NW14      30.59R WCI -10
$$

NEZ011>018-030>034-042>045-081500-
NORTHEAST NEBRASKA

CITY           SKY/WX    TMP DP  RH WIND       PRES   REMARKS
TEKAMAH        PTCLDY    10   3  73 NW17      30.57R WCI  -8
$$

NEZ050>053-065>068-078-088>093-081500-
SOUTHEAST NEBRASKA

CITY           SKY/WX    TMP DP  RH WIND       PRES   REMARKS
LINCOLN        CLEAR     11   1  64 NW13      30.61R WCI  -4
OMAHA EPPLEY   PTCLDY    11   3  70 NW17      30.57R WCI  -6
FALLS CITY     CLEAR     13   5  70 NW10      30.59R WCI   0
$$

NEZ044-045-051>053-067-081500-
OMAHA AREA

CITY           SKY/WX    TMP DP  RH WIND       PRES   REMARKS
OMAHA EPPLEY   PTCLDY    11   3  70 NW17      30.57R WCI  -6
OFFUTT AFB     CLEAR     11   3  70 NW13G21   30.57R WCI  -4
$$



USA.gov is the U.S. government's official web portal to all federal, state and local government web resources and services.